Location: Gazon
(48.1318°N, 1.2708°W)
Time: 22:58:38
(UTC+00:00)

Cosmos 1680 Rocket - Pass Details

Date: 18 September 2020
Orbit: 760 x 781 km, 74.1° (Epoch: 25 October)

Event Time Altitude Azimuth Distance (km) Brightness Sun altitude
Rises 18:52:12 0° 333° (NNW) 3,234 7.3 -7.7°
Reaches altitude 10° 18:54:37 10° 329° (NNW) 2,306 6.6 -8.1°
Maximum altitude 18:59:41 53° 254° (WSW) 935 4.4 -9.0°
Drops below altitude 10° 19:04:45 10° 178° (S) 2,301 5.8 -9.8°
Sets 19:07:10 0° 174° (S) 3,227 6.5 -10.2°
